{"data":{"norad_id":65338,"intl_designator":"2025-189R","name":"STARLINK-34751","alt_names":[],"object_type":"PAYLOAD","status":"ACTIVE","operator":null,"country":"US","launch_date":"2025-08-27","launch_site_code":"AFETR","launch_vehicle":null,"mission":null,"orbit_class":"UNKNOWN","rcs_meters":null,"size_class":null,"mass_kg":null,"dimensions":null,"purposes":["comms"],"wikipedia_slug":null,"has_3d_model":false,"image_url":null,"decayed_at":null,"tle_current":{"epoch":"2026-09-20T13:31:39.201024Z","epoch_age_seconds":112081,"freshness":"FRESH","line1":"1 65338U 25189R   26263.56364816  .00022171  00000+0  72421-3 0  9999","line2":"2 65338  53.1595  20.0980 0000967  97.3557 262.7554 15.31694410 60968","mean_motion":15.3169441,"eccentricity":9.67e-5,"inclination_deg":53.1595,"raan_deg":20.098,"arg_perigee_deg":97.3557,"mean_anomaly_deg":262.7554,"bstar":0.00072421,"rev_number":6096,"period_min":94.013531067205,"perigee_km":470.09437075864,"apogee_km":471.41894679225,"semimajor_km":6848.8936587754,"source":"CELESTRAK","updated_at":"2026-09-21T09:00:35.571946Z"}}}